Weather in Wafangdian

China     39°37′59″N   122°00′32″E
temp.,
°C
wind,
m/s
gust,
m/s
humid.,
%
clouds,
%
prec.,
mm/h
press.,
hPa
HPBL,
m
18 june, fri
fri1823:00+18ssw2392100 0.0 1002106
02:00+18sw249328 0.0 1001243
05:00+16n119783 0.0 100112
08:00+23n2346100 0.0 1000370
11:00+27wnw452586 0.0 10001815
14:00+27wnw67260 0.0 9991756
17:00+26sw46290 0.0 998815
20:00+19sse334573 0.0 99831
19 june, sat
sat1923:00+17sse22471 0.0 99811
02:00+17ssw11590 0.0 99711
05:00+17wsw12601 0.0 99711
08:00+25w3535100 0.0 998349
11:00+29wnw56220 0.0 9971126
14:00+30w611180 0.0 9963192
17:00+27sw610323 0.0 996642
20:00+21ese114623 0.0 99611
20 june, sun
sun2023:00+19n114820 0.0 99711
02:00+18n22510 0.0 99714
05:00+18n33520 0.0 99928
08:00+24nnw59390 0.0 999900
11:00+26nnw79350 0.0 10001511
14:00+27nw511320 0.0 9992092
17:00+27nw463496 0.0 10001802
20:00+21wsw22480 0.0 100111
21 june, mon
mon2123:00+19nne115049 0.0 100211
02:00+18n115287 0.0 100211
05:00+18nne2254100 0.0 100326
08:00+23n574715 0.0 1004766
11:00+26nnw66400 0.0 10041391
14:00+26nnw65400 0.0 10041670
17:00+25n57445 0.0 10041294
20:00+21n236016 0.0 100552
22 june, tue
tue2223:00+18n11755 0.2 100711
02:00+17nnw22815 0.2 100721
05:00+16nnw22865 0.0 100836
08:00+22n57590 0.0 1009847
11:00+25nnw67460 0.0 10091615
14:00+26nnw65422 0.0 10081584
17:00+25n454517 0.0 10081381
20:00+19nw11670 0.0 101011